WZZ822 EPGD-HEMA

Flight info

Callsign WZZ822
Flight time N/A
Altitude 21000
Route EPGD/11 IRLUN N133 PENEX/N0387F270 N133 KOTEK/N0431F330 N133 LENOV DCT KENIN DCT KARIL DCT BULEN/N0435F350 L742 RIXEN UG1 IST UT35 AYT DCT CVO L315 HGD V730 SIBRI
Aircraft A21N/M-SDE2E3FGHIJ1RWXY/LB1

Departure

Time N/A
Airport Gdańsk Lech Wałęsa Airport (EPGD)

Arrival

Time 2026-05-05 15:14
Airport Marsa Alam International Airport (HEMA)
Time Latitude Longitude Altitude Speed Heading
2026-05-05 14:01 32.53088 31.18688 35067 ft 456 kts 184°
2026-05-05 14:02 32.46755 31.19224 35072 ft 456 kts 184°
2026-05-05 14:02 32.40427 31.19759 35074 ft 456 kts 184°
2026-05-05 14:03 32.34133 31.20291 35074 ft 455 kts 185°
2026-05-05 14:03 32.27809 31.20827 35085 ft 455 kts 185°
2026-05-05 14:04 32.21498 31.21358 35083 ft 455 kts 185°
2026-05-05 14:04 32.15176 31.21890 35074 ft 455 kts 185°
2026-05-05 14:05 32.08856 31.22422 35077 ft 455 kts 185°
2026-05-05 14:05 32.02541 31.22953 35085 ft 455 kts 185°
2026-05-05 14:06 31.96226 31.23481 35087 ft 453 kts 185°
2026-05-05 14:06 31.89964 31.24007 35081 ft 450 kts 185°
2026-05-05 14:07 31.83712 31.24530 35081 ft 450 kts 185°
2026-05-05 14:07 31.77466 31.25051 35078 ft 450 kts 185°
2026-05-05 14:08 31.71265 31.25565 35083 ft 450 kts 185°
2026-05-05 14:08 31.65019 31.26086 35092 ft 450 kts 185°
2026-05-05 14:09 31.58783 31.26605 35095 ft 449 kts 185°
2026-05-05 14:09 31.52553 31.27125 35083 ft 448 kts 185°
2026-05-05 14:10 31.46333 31.27638 35097 ft 448 kts 185°
2026-05-05 14:10 31.40113 31.28152 35081 ft 448 kts 185°
2026-05-05 14:11 31.33891 31.28667 35079 ft 447 kts 185°
2026-05-05 14:11 31.27682 31.29181 35077 ft 446 kts 185°
2026-05-05 14:12 31.21489 31.29693 35070 ft 446 kts 185°
2026-05-05 14:12 31.15298 31.30203 35074 ft 446 kts 185°
2026-05-05 14:13 31.09099 31.30713 35076 ft 445 kts 185°
2026-05-05 14:13 31.02917 31.31222 35068 ft 445 kts 185°
2026-05-05 14:14 30.96775 31.31725 35070 ft 445 kts 185°
2026-05-05 14:14 30.90607 31.32231 35073 ft 444 kts 185°
2026-05-05 14:15 30.84447 31.32735 35073 ft 444 kts 185°
2026-05-05 14:15 30.78298 31.33239 35067 ft 442 kts 185°
2026-05-05 14:16 30.72154 31.33738 35066 ft 442 kts 185°
2026-05-05 14:16 30.66031 31.34238 35061 ft 441 kts 185°
2026-05-05 14:17 30.59907 31.34737 35064 ft 441 kts 185°
2026-05-05 14:17 30.53797 31.35233 35062 ft 439 kts 186°
2026-05-05 14:18 30.47701 31.35727 35062 ft 439 kts 186°
2026-05-05 14:18 30.41603 31.36224 35054 ft 438 kts 186°
2026-05-05 14:19 30.35558 31.36712 35051 ft 438 kts 186°
2026-05-05 14:19 30.29488 31.37204 35051 ft 437 kts 186°
2026-05-05 14:20 30.23422 31.37694 35050 ft 436 kts 186°
2026-05-05 14:20 30.17362 31.38183 35049 ft 436 kts 186°
2026-05-05 14:21 30.11325 31.38832 35045 ft 445 kts 178°
2026-05-05 14:21 30.08319 31.39923 35045 ft 463 kts 165°
2026-05-05 14:21 30.05503 31.41841 35054 ft 477 kts 153°
2026-05-05 14:22 30.00191 31.46488 35056 ft 479 kts 151°
2026-05-05 14:22 29.94876 31.51103 35056 ft 477 kts 152°
2026-05-05 14:23 29.89535 31.55659 35056 ft 475 kts 152°
2026-05-05 14:23 29.84227 31.60171 35063 ft 474 kts 152°
2026-05-05 14:24 29.78948 31.64655 35071 ft 474 kts 152°
2026-05-05 14:24 29.73633 31.69167 35071 ft 474 kts 152°
2026-05-05 14:25 29.68325 31.73672 35072 ft 474 kts 152°
2026-05-05 14:25 29.63000 31.78187 35075 ft 476 kts 152°
2026-05-05 14:26 29.57681 31.82688 35074 ft 475 kts 153°
2026-05-05 14:26 29.52356 31.87179 35065 ft 475 kts 152°
2026-05-05 14:27 29.47034 31.91661 35073 ft 474 kts 153°
2026-05-05 14:27 29.41717 31.96140 35072 ft 474 kts 152°
2026-05-05 14:28 29.36392 32.00621 35075 ft 474 kts 153°
2026-05-05 14:28 29.31103 32.05062 35053 ft 472 kts 153°
2026-05-05 14:29 29.25805 32.09508 35047 ft 472 kts 153°
2026-05-05 14:29 29.20497 32.13955 35050 ft 473 kts 153°
2026-05-05 14:30 29.15183 32.18400 35043 ft 473 kts 153°
2026-05-05 14:30 29.09878 32.22834 35042 ft 471 kts 153°
2026-05-05 14:31 29.04577 32.27258 35042 ft 471 kts 153°
2026-05-05 14:31 28.99274 32.31676 35042 ft 472 kts 153°
2026-05-05 14:32 28.94005 32.36061 35038 ft 471 kts 153°
2026-05-05 14:32 28.88715 32.40460 35035 ft 470 kts 153°
2026-05-05 14:33 28.83433 32.44845 35049 ft 470 kts 153°
2026-05-05 14:33 28.78150 32.49226 35022 ft 469 kts 153°
2026-05-05 14:34 28.72866 32.53601 35016 ft 470 kts 153°
2026-05-05 14:34 28.67572 32.57980 35017 ft 470 kts 153°
2026-05-05 14:35 28.62270 32.62359 35010 ft 470 kts 153°
2026-05-05 14:35 28.56977 32.66723 35012 ft 470 kts 153°
2026-05-05 14:36 28.51727 32.71051 35012 ft 469 kts 153°
2026-05-05 14:36 28.46438 32.75402 35000 ft 469 kts 153°
2026-05-05 14:37 28.41141 32.79757 35000 ft 469 kts 153°
2026-05-05 14:37 28.36744 32.83365 34997 ft 469 kts 153°
2026-05-05 14:38 28.31421 32.87729 34990 ft 469 kts 153°
2026-05-05 14:38 28.26138 32.92057 34987 ft 468 kts 153°
2026-05-05 14:39 28.20858 32.96375 34973 ft 468 kts 153°
2026-05-05 14:39 28.15578 33.00690 34971 ft 468 kts 153°
2026-05-05 14:40 28.10297 33.04998 34971 ft 467 kts 153°
2026-05-05 14:40 28.05012 33.09303 34970 ft 467 kts 153°
2026-05-05 14:41 27.99746 33.13589 34971 ft 466 kts 153°
2026-05-05 14:41 27.94490 33.17863 34973 ft 465 kts 153°
2026-05-05 14:42 27.89231 33.22131 34972 ft 466 kts 153°
2026-05-05 14:42 27.84004 33.26367 34971 ft 465 kts 153°
2026-05-05 14:43 27.78748 33.30627 34969 ft 464 kts 153°
2026-05-05 14:43 27.73492 33.34879 34968 ft 464 kts 153°
2026-05-05 14:44 27.68245 33.39119 34969 ft 464 kts 153°
2026-05-05 14:44 27.62990 33.43359 34970 ft 464 kts 154°
2026-05-05 14:45 27.57739 33.47590 34969 ft 464 kts 154°
2026-05-05 14:45 27.52487 33.51817 34970 ft 464 kts 154°
2026-05-05 14:46 27.47265 33.56016 34966 ft 463 kts 154°
2026-05-05 14:46 27.42022 33.60223 34970 ft 463 kts 154°
2026-05-05 14:47 27.36772 33.64437 34965 ft 463 kts 154°
2026-05-05 14:47 27.31529 33.68637 34960 ft 462 kts 154°
2026-05-05 14:48 27.26287 33.72830 34959 ft 462 kts 154°
2026-05-05 14:48 27.21046 33.77019 34961 ft 462 kts 154°
2026-05-05 14:49 27.15997 33.81565 34946 ft 472 kts 144°
2026-05-05 14:49 27.13683 33.84156 34552 ft 466 kts 143°
2026-05-05 14:49 27.11412 33.86733 33987 ft 462 kts 143°
2026-05-05 14:50 27.09156 33.89281 33395 ft 458 kts 143°
2026-05-05 14:50 27.06913 33.91802 32854 ft 454 kts 143°
2026-05-05 14:50 27.04690 33.94293 32294 ft 450 kts 143°
2026-05-05 14:50 27.02516 33.96724 31746 ft 446 kts 143°
2026-05-05 14:51 27.00300 33.99200 31199 ft 441 kts 143°
2026-05-05 14:51 26.98162 34.01589 30680 ft 437 kts 143°
2026-05-05 14:51 26.96016 34.03982 30173 ft 432 kts 143°
2026-05-05 14:51 26.93897 34.06346 29658 ft 428 kts 143°
2026-05-05 14:52 26.91794 34.08689 29127 ft 425 kts 143°
2026-05-05 14:52 26.89710 34.11011 28608 ft 421 kts 142°
2026-05-05 14:52 26.87636 34.13321 28112 ft 418 kts 142°
2026-05-05 14:52 26.85579 34.15607 27620 ft 416 kts 143°
2026-05-05 14:53 26.83372 34.17609 27096 ft 401 kts 158°
2026-05-05 14:53 26.80876 34.18824 26594 ft 385 kts 171°
2026-05-05 14:53 26.78314 34.19610 26098 ft 380 kts 174°
2026-05-05 14:53 26.75757 34.20332 25603 ft 378 kts 174°
2026-05-05 14:54 26.73217 34.21072 25141 ft 376 kts 173°
2026-05-05 14:54 26.70694 34.21834 24657 ft 375 kts 172°
2026-05-05 14:54 26.68175 34.22609 24159 ft 374 kts 172°
2026-05-05 14:54 26.65673 34.23386 23667 ft 373 kts 172°
2026-05-05 14:55 26.63175 34.24165 23200 ft 370 kts 172°
2026-05-05 14:55 26.60697 34.24938 22738 ft 368 kts 172°
2026-05-05 14:55 26.58274 34.25692 22290 ft 366 kts 171°
2026-05-05 14:55 26.55824 34.26455 21815 ft 364 kts 171°
2026-05-05 14:56 26.53393 34.27211 21357 ft 362 kts 172°
2026-05-05 14:56 26.50973 34.27964 20894 ft 360 kts 171°
2026-05-05 14:56 26.48568 34.28711 20433 ft 358 kts 171°
2026-05-05 14:56 26.46175 34.29455 19988 ft 355 kts 171°
2026-05-05 14:57 26.43801 34.30193 19558 ft 352 kts 171°
2026-05-05 14:57 26.41447 34.30923 19138 ft 350 kts 171°
2026-05-05 14:57 26.39101 34.31651 18720 ft 347 kts 171°
2026-05-05 14:57 26.36801 34.32364 18311 ft 345 kts 171°
2026-05-05 14:58 26.34496 34.33079 17914 ft 343 kts 171°
2026-05-05 14:58 26.32200 34.33791 17529 ft 340 kts 171°
2026-05-05 14:58 26.29924 34.34497 17146 ft 338 kts 171°
2026-05-05 14:58 26.27661 34.35197 16756 ft 337 kts 171°
2026-05-05 14:59 26.25405 34.35894 16384 ft 335 kts 171°
2026-05-05 14:59 26.23157 34.36589 16016 ft 334 kts 171°
2026-05-05 14:59 26.20919 34.37280 15656 ft 333 kts 171°
2026-05-05 14:59 26.18682 34.37972 15302 ft 333 kts 171°
2026-05-05 15:00 26.16458 34.38660 14947 ft 332 kts 171°
2026-05-05 15:00 26.14983 34.39116 14699 ft 332 kts 171°
2026-05-05 15:00 26.12003 34.40036 14177 ft 332 kts 171°
2026-05-05 15:00 26.09779 34.40722 13802 ft 332 kts 170°
2026-05-05 15:01 26.07585 34.41400 13436 ft 331 kts 170°
2026-05-05 15:01 26.05339 34.42093 13072 ft 331 kts 170°
2026-05-05 15:01 26.03147 34.42769 12710 ft 330 kts 170°
2026-05-05 15:01 26.00939 34.43448 12331 ft 329 kts 170°
2026-05-05 15:02 25.98733 34.44129 11938 ft 327 kts 170°
2026-05-05 15:02 25.96564 34.44804 11563 ft 321 kts 170°
2026-05-05 15:02 25.94429 34.45473 11185 ft 315 kts 169°
2026-05-05 15:02 25.92345 34.46126 10847 ft 309 kts 169°
2026-05-05 15:03 25.90290 34.46768 10508 ft 305 kts 169°
2026-05-05 15:03 25.88254 34.47402 10177 ft 303 kts 169°
2026-05-05 15:03 25.86229 34.48033 9861 ft 301 kts 169°
2026-05-05 15:03 25.84219 34.48660 9519 ft 300 kts 168°
2026-05-05 15:04 25.82208 34.49287 9167 ft 299 kts 168°
2026-05-05 15:04 25.80208 34.49909 8816 ft 298 kts 168°
2026-05-05 15:04 25.78217 34.50531 8464 ft 297 kts 168°
2026-05-05 15:04 25.76226 34.51151 8117 ft 297 kts 168°
2026-05-05 15:05 25.72278 34.52380 7450 ft 295 kts 168°
2026-05-05 15:05 25.70303 34.52994 7097 ft 295 kts 168°
2026-05-05 15:05 25.68327 34.53609 6729 ft 294 kts 168°
2026-05-05 15:06 25.66357 34.54222 6367 ft 293 kts 168°
2026-05-05 15:06 25.64407 34.54827 6015 ft 289 kts 167°
2026-05-05 15:06 25.62476 34.55427 5657 ft 286 kts 168°
2026-05-05 15:06 25.60560 34.56023 5310 ft 285 kts 166°
2026-05-05 15:07 25.58766 34.56934 4958 ft 287 kts 145°
2026-05-05 15:07 25.57457 34.58595 4526 ft 289 kts 118°
2026-05-05 15:07 25.56637 34.60619 4141 ft 288 kts 111°
2026-05-05 15:07 25.55892 34.62667 3795 ft 287 kts 111°
2026-05-05 15:08 25.55135 34.64708 3458 ft 286 kts 111°
2026-05-05 15:08 25.54369 34.66733 3115 ft 284 kts 111°
2026-05-05 15:08 25.53603 34.68724 2880 ft 277 kts 112°
2026-05-05 15:08 25.52679 34.70535 2684 ft 264 kts 135°
2026-05-05 15:09 25.51239 34.71648 2478 ft 243 kts 163°
2026-05-05 15:09 25.49685 34.71958 2278 ft 214 kts 186°
2026-05-05 15:09 25.48313 34.71644 2024 ft 192 kts 202°
2026-05-05 15:09 25.47239 34.70916 1876 ft 173 kts 217°
2026-05-05 15:10 25.46448 34.69931 1770 ft 178 kts 230°
2026-05-05 15:10 25.45890 34.68678 1764 ft 186 kts 247°
2026-05-05 15:10 25.45702 34.67248 1777 ft 191 kts 265°
2026-05-05 15:10 25.45927 34.65820 1777 ft 199 kts 284°
2026-05-05 15:11 25.46622 34.64449 1779 ft 196 kts 306°
2026-05-05 15:11 25.47544 34.63504 1756 ft 166 kts 321°
2026-05-05 15:11 25.48503 34.62844 1423 ft 160 kts 333°
2026-05-05 15:11 25.49458 34.62254 1249 ft 154 kts 337°
2026-05-05 15:12 25.50324 34.61742 1213 ft 129 kts 336°
2026-05-05 15:12 25.51112 34.61281 1055 ft 127 kts 336°
2026-05-05 15:12 25.51891 34.60808 898 ft 128 kts 333°
2026-05-05 15:12 25.52669 34.60322 766 ft 128 kts 333°
2026-05-05 15:13 25.53440 34.59823 577 ft 129 kts 334°
2026-05-05 15:13 25.54219 34.59333 392 ft 129 kts 333°
2026-05-05 15:13 25.54998 34.58837 264 ft 127 kts 332°
2026-05-05 15:13 25.55567 34.58470 264 ft 53 kts 327°
2026-05-05 15:14 25.55854 34.58289 268 ft 48 kts 329°
2026-05-05 15:14 25.56068 34.58182 265 ft 23 kts
2026-05-05 15:14 25.56090 34.58143 265 ft 12 kts 186°
2026-05-05 15:14 25.56009 34.58190 266 ft 15 kts 149°
2026-05-05 15:15 25.55912 34.58252 269 ft 17 kts 151°
2026-05-05 15:15 25.55807 34.58323 267 ft 18 kts 148°
2026-05-05 15:15 25.55692 34.58397 266 ft 20 kts 151°
2026-05-05 15:15 25.55568 34.58473 264 ft 21 kts 150°
2026-05-05 15:16 25.55486 34.58565 262 ft 18 kts 79°
2026-05-05 15:16 25.55547 34.58690 260 ft 19 kts 60°
2026-05-05 15:16 25.55616 34.58813 250 ft 18 kts 63°
2026-05-05 15:16 25.55577 34.58928 248 ft 19 kts 152°
2026-05-05 15:17 25.55486 34.58983 248 ft 13 kts 150°
2026-05-05 15:17 25.55441 34.59022 248 ft 6 kts 103°
2026-05-05 15:17 25.55460 34.59070 248 ft 8 kts 59°
2026-05-05 15:17 25.55473 34.59093 247 ft 0 kts 59°